#timestamp,LO_Frequency,Hit,StdDev 
1555966815.7,286047016.7,N
1555966835.6,286047003.9,N
1555966855.4,286047005.5,N
1555966875.2,286046995.4,N
1555966895.1,286046993.1,N
1555966896.0,286046993.1,N
1555966915.8,286046992.5,N
1555966935.7,286046984.9,N
1555966955.5,286046975.7,N
1555966975.3,286046972.6,N
1555966995.2,286046978.6,N
1555967015.0,286046978.7,N
1555967015.9,286046978.7,N
1555967035.8,286046980.8,N
1555967055.6,286046984.2,N
1555967075.4,286046989.7,N
1555967095.3,286046987.2,N
1555967115.1,286046993.7,N
1555967135.9,286046998.3,N
1555967155.7,286047007.1,N
1555967175.5,286047014.8,N
1555967195.4,286047017.1,N
1555967215.2,286047015.9,N
1555967235.0,286047016.5,N
1555967235.9,286047016.5,N
1555967255.8,286047009.7,N
1555967275.6,286047012.2,N
1555967295.5,286047011.4,N
1555967315.3,286047018.1,N
1555967335.1,286047006.4,N
1555967355.9,286047010.1,N
1555967375.7,286047010.9,N
1555967395.5,286047014.8,N
1555967415.4,286047013.8,N
1555967435.2,286047012.0,N
1555967455.1,286047018.1,N
1555967456.0,286047018.1,N
1555967475.8,286047020.1,N
1555967495.6,286047022.7,N
1555967515.5,286047026.7,N
1555967535.3,286047037.5,N
1555967555.1,286047030.3,N
1555967575.9,286047029.1,N
1555967595.7,286047036.1,N
1555967615.6,286047036.4,N
1555967635.4,286047031.7,N
1555967655.2,286047033.2,N
1555967675.1,286047033.3,Y
1555967676.0,286047033.3,P
1555967695.8,286047018.2,N
1555967715.7,286047020.9,N
1555967735.5,286047020.9,Y
1555967755.3,286046994.0,P
1555967775.2,286046993.3,N
1555967795.0,286046995.3,N
1555967795.9,286046995.3,N
1555967815.7,286046995.6,N
1555967835.6,286046997.2,N
1555967855.4,286046992.3,N
1555967875.3,286046994.6,N
1555967895.1,286047000.7,N
1555967896.0,286047000.7,N
1555967915.8,286047010.0,N
1555967935.7,286047012.5,N
1555967955.5,286047018.5,N
1555967975.3,286047021.3,N
1555967995.2,286047011.5,N
1555968015.0,286047006.1,N
1555968015.9,286047006.1,N
1555968035.8,286047005.5,N
1555968055.6,286047000.7,N
1555968075.4,286046988.8,N
1555968095.3,286046988.3,N
1555968115.1,286046987.6,N
1555968135.9,286046980.5,N
1555968155.7,286046974.4,N
1555968175.5,286046973.9,N
1555968195.4,286046984.1,N
1555968215.2,286046988.4,N
1555968235.0,286046984.7,N
1555968235.9,286046984.7,N
1555968255.8,286046989.9,N
1555968275.6,286046979.0,N
1555968295.5,286046975.7,N
1555968315.3,286046976.3,N
1555968335.1,286046985.1,N
1555968355.9,286046986.1,N
1555968375.7,286046995.2,N
1555968395.5,286047004.6,N
1555968415.4,286047015.6,N
1555968435.2,286047025.2,N
1555968455.1,286047024.1,N
1555968456.0,286047024.1,N
1555968475.8,286047025.6,N
1555968495.6,286047034.6,N
1555968515.5,286047036.4,N
1555968535.3,286047027.2,N
1555968555.1,286047016.0,N
1555968575.9,286047008.1,N
1555968595.7,286047000.1,N
1555968615.6,286047008.9,N
1555968635.4,286047007.9,N
1555968655.2,286047017.1,N
1555968675.1,286047023.3,N
1555968676.0,286047023.3,N
1555968695.8,286047028.1,N
1555968715.7,286047030.3,N
1555968735.5,286047028.6,N
1555968755.3,286047036.4,N
1555968775.2,286047035.0,N
1555968795.0,286047033.4,N
1555968795.9,286047033.4,N
1555968815.7,286047031.3,N
1555968835.6,286047033.2,N
1555968855.4,286047027.2,N
1555968875.3,286047021.6,N
1555968895.1,286047026.7,N
1555968915.8,286047029.5,N
1555968935.7,286047020.5,N
1555968955.5,286047019.8,N
1555968975.4,286047024.5,N
1555968995.2,286047033.4,Y
1555969015.0,286047017.2,P
1555969015.9,286047017.2,P
1555969035.8,286047018.3,P
1555969055.6,286047018.1,Y
1555969075.5,286046995.5,P
1555969095.3,286046993.2,N
1555969115.1,286046996.4,N
1555969135.9,286046991.6,N
1555969155.7,286046994.2,N
1555969175.6,286046993.0,N
1555969195.4,286046998.0,N
1555969215.2,286046998.8,N
1555969235.1,286047000.9,N
1555969236.0,286047000.9,N
1555969255.8,286046995.2,N
1555969275.6,286047001.0,N
1555969295.5,286047004.7,N
1555969315.3,286047007.3,N
1555969335.2,286047010.1,N
1555969355.9,286047011.7,N
1555969375.7,286047020.4,N
1555969395.6,286047017.5,N
1555969415.4,286047016.5,N
1555969435.3,286047021.7,N
1555969455.1,286047025.2,N
1555969456.0,286047025.2,N
1555969475.8,286047017.4,N
1555969495.7,286047021.7,N
1555969515.5,286047020.2,N
1555969535.3,286047017.8,N
1555969555.2,286047020.2,N
1555969575.0,286047015.8,N
1555969575.9,286047015.8,N
1555969595.8,286047018.5,N
1555969615.6,286047014.1,N
1555969635.4,286047013.7,N
1555969655.3,286047008.7,N
1555969705.1,286047010.8,E
1555969715.1,286047011.5,N
1555969716.0,286047011.5,P
1555969735.8,286047007.4,P
1555969755.6,286047006.6,Y
1555969775.5,286046990.1,P
1555969795.3,286046998.2,N
1555969815.2,286047008.9,N
1555969835.9,286047003.0,N
1555969855.7,286047008.4,N
1555969875.6,286047012.6,N
1555969895.4,286047015.7,N
1555969915.3,286047025.2,Y
1555969935.1,286047014.9,P
1555969936.0,286047014.9,P
1555969955.8,286047003.7,N
1555969975.7,286047007.5,N
1555969995.5,286047007.9,N
1555970015.3,286047005.5,N
1555970035.2,286047000.4,N
1555970055.0,286047002.6,N
1555970055.9,286047002.6,N
1555970075.8,286047005.1,N
1555970095.6,286047008.2,N
1555970115.4,286047011.6,N
1555970135.3,286047010.4,N
1555970155.1,286047010.1,N
1555970175.9,286047012.9,Y
1555970195.7,286047011.0,P
1555970215.5,286047005.4,N
1555970235.4,286046999.7,N
1555970255.2,286046997.2,N
1555970275.0,286046993.7,N
1555970275.9,286046993.7,N
1555970295.8,286046994.3,N
1555970315.6,286046992.2,N
1555970335.5,286046988.5,N
1555970355.3,286046988.5,N
1555970375.1,286046987.7,N
1555970395.9,286046991.5,N
